Date String (YYYY-MM-DD hh:mm:ss) UTC,Instrument flags,absolute air pressure of the measurement (hPa),sample flow rate (lpm),inlet stack bypass flow (lpm),air temperature of the measurement (°C),ambient temperature measured by the external sensor (°C),aerosol sample conditioner tube jacket temperature (°C),OPC LED temperature (°C),internal box temperature (°C),relative humidity of the measurement (%),span deviation,mass concentration of particles derived from Lorenz-Mie calculation of OPC scattering (μg/m³),mass concentration of particles derived from Lorenz-Mie calculation of OPC scattering (μg/m³),mass concentration of particles derived from Lorenz-Mie calculation of OPC scattering (μg/m³)
DateTimeUTC,F1_M11,P_M11,Q1_M11,Q2_M11,T1_M11,T2_M11,T3_M11,T4_M11,T5_M11,U1_M11,ZSPAN_M11,X0_M11,X2_M11,X1_M11
2023-08-08 15:00:00,SystemResetWarning,0831.7,5.00,000.00,029.7,028.5,000.0,038.3,031.4,31.6,0000.9,0012.42,0005.92,0004.97
2023-08-08 15:01:00,SystemResetWarning,0831.7,4.99,000.00,029.7,027.8,000.0,038.2,031.4,30.7,0000.5,0012.65,0005.94,0004.97
2023-08-08 15:02:00,SystemResetWarning,0831.7,5.00,000.00,029.7,026.0,000.0,038.1,031.0,31.5,0000.7,0012.52,0005.95,0004.98
2023-08-08 15:03:00,SystemResetWarning,0831.7,5.02,000.00,029.6,025.2,000.0,038.0,030.9,31.7,0000.1,0012.92,0005.94,0004.99
2023-08-08 15:04:00,SystemResetWarning,0831.7,5.01,000.00,029.5,025.4,000.0,038.0,030.7,31.5,0000.1,0012.73,0005.91,0004.99
2023-08-08 15:05:00,SystemResetWarning,0831.7,5.00,000.00,029.4,025.7,000.0,038.0,030.7,31.6,0000.0,0012.64,0005.89,0004.98
2023-08-08 15:06:00,SystemResetWarning,0831.7,5.01,000.00,029.4,026.2,000.0,038.0,030.8,31.7,0000.0,0013.13,0005.91,0004.99
2023-08-08 15:07:00,SystemResetWarning,0831.6,5.00,000.00,029.4,026.6,000.0,038.0,030.8,30.8,0000.0,0013.09,0005.94,0005.01
2023-08-08 15:08:00,SystemResetWarning,0831.6,5.00,000.00,029.4,026.9,000.0,038.0,030.9,30.3,0001.2,0012.79,0005.97,0005.01
2023-08-08 15:09:00,SystemResetWarning,0831.6,5.01,000.00,029.4,027.2,000.0,038.0,031.0,28.4,0000.8,0012.76,0005.95,0005.02
2023-08-08 15:10:00,SystemResetWarning,0831.6,5.00,000.00,029.4,027.4,000.0,038.0,031.0,28.2,0000.8,0012.77,0005.93,0005.02
2023-08-08 15:11:00,SystemResetWarning,0831.6,5.00,000.00,029.4,027.7,000.0,038.0,031.1,29.3,0000.2,0012.74,0005.94,0005.02
2023-08-08 15:12:00,SystemResetWarning,0831.6,5.00,000.00,029.4,027.8,000.0,038.0,031.1,29.3,0000.5,0012.74,0005.92,0005.02
2023-08-08 15:13:00,SystemResetWarning,0831.6,5.00,000.00,029.5,028.0,000.0,038.1,031.1,29.5,0000.7,0012.81,0005.93,0005.02
2023-08-08 15:14:00,SystemResetWarning,0831.5,5.01,000.00,029.5,028.1,000.0,038.1,031.2,29.4,0000.3,0011.98,0005.93,0005.01
2023-08-08 15:15:00,SystemResetWarning,0831.5,5.00,000.00,029.5,028.2,000.0,038.1,031.2,29.3,-000.3,0012.01,0005.93,0005.01
2023-08-08 15:16:00,SystemResetWarning,0831.6,5.00,000.00,029.6,028.3,000.0,038.1,031.3,29.2,-000.4,0011.99,0005.92,0005.02
2023-08-08 15:17:00,SystemResetWarning,0831.6,5.00,000.00,029.6,028.4,000.0,038.1,031.3,28.4,-000.3,0011.82,0005.88,0005.02
2023-08-08 15:18:00,SystemResetWarning,0831.6,5.00,000.00,029.6,028.4,000.0,038.1,031.3,28.2,-000.1,0011.76,0005.91,0005.02
2023-08-08 15:19:00,SystemResetWarning,0831.6,4.98,000.00,029.6,027.1,000.0,038.0,031.2,29.0,0000.3,0011.77,0005.92,0005.03
2023-08-08 15:20:00,SystemResetWarning,0831.6,5.01,000.00,029.6,025.6,000.0,037.9,030.9,29.1,0000.7,0011.69,0005.96,0005.04
2023-08-08 15:21:00,SystemResetWarning,0831.6,5.01,000.00,029.5,025.3,000.0,037.8,030.7,29.5,0000.5,0011.69,0005.97,0005.04
2023-08-08 15:22:00,SystemResetWarning,0831.6,5.01,000.00,029.4,025.5,000.0,037.9,030.6,30.4,0000.7,0011.42,0005.97,0005.05
2023-08-08 15:23:00,SystemResetWarning,0831.6,5.00,000.00,029.3,025.9,000.0,037.9,030.6,30.5,0000.8,0011.29,0006.00,0005.07
2023-08-08 15:24:00,SystemResetWarning,0831.6,5.00,000.00,029.3,026.3,000.0,037.9,030.7,30.3,0001.0,0011.48,0006.05,0005.09
2023-08-08 15:25:00,SystemResetWarning,0831.6,5.00,000.00,029.3,026.7,000.0,037.9,030.8,29.2,0001.3,0011.55,0006.12,0005.11
2023-08-08 15:26:00,SystemResetWarning,0831.6,5.01,000.00,029.3,027.0,000.0,037.9,030.9,28.6,0001.9,0011.55,0006.18,0005.12
2023-08-08 15:27:00,SystemResetWarning,0831.6,5.00,000.00,029.3,027.3,000.0,037.9,030.9,28.9,0002.1,0012.19,0006.24,0005.13
2023-08-08 15:28:00,SystemResetWarning,0831.6,4.99,000.00,029.3,027.5,000.0,037.9,031.0,29.2,0001.8,0012.43,0006.25,0005.14
2023-08-08 15:29:00,SystemResetWarning,0831.6,5.00,000.00,029.4,027.8,000.0,038.0,031.1,28.6,0002.0,0012.54,0006.21,0005.14
2023-08-08 15:30:00,SystemResetWarning,0831.6,5.00,000.00,029.4,027.9,000.0,038.0,031.1,28.7,0001.6,0012.09,0006.17,0005.15
2023-08-08 15:31:00,SystemResetWarning,0831.7,5.00,000.00,029.4,028.1,000.0,038.0,031.1,28.3,0001.1,0012.47,0006.15,0005.17
2023-08-08 15:32:00,SystemResetWarning,0831.7,5.00,000.00,029.5,028.2,000.0,038.0,031.2,28.2,0001.1,0012.41,0006.16,0005.19
2023-08-08 15:33:00,SystemResetWarning,0831.7,5.00,000.00,029.5,028.3,000.0,038.0,031.2,29.1,0001.0,0012.46,0006.15,0005.20
2023-08-08 15:34:00,SystemResetWarning,0831.7,4.99,000.00,029.5,028.4,000.0,038.0,031.3,29.7,0001.1,0012.55,0006.17,0005.20
2023-08-08 15:35:00,SystemResetWarning,0831.7,4.99,000.00,029.6,027.9,000.0,038.0,031.3,30.1,0000.9,0013.34,0006.18,0005.21
2023-08-08 15:36:00,SystemResetWarning,0831.7,5.00,000.00,029.5,026.2,000.0,037.9,031.0,29.7,0001.3,0014.28,0006.16,0005.20
2023-08-08 15:37:00,SystemResetWarning,0831.6,5.00,000.00,029.5,025.3,000.0,037.8,030.8,29.5,0001.2,0014.29,0006.14,0005.20
2023-08-08 15:38:00,SystemResetWarning,0831.6,5.02,000.00,029.4,025.3,000.0,037.7,030.6,28.9,0001.2,0013.67,0006.08,0005.20
2023-08-08 15:39:00,SystemResetWarning,0831.7,5.00,000.00,029.3,025.6,000.0,037.8,030.5,28.7,0001.0,0013.12,0006.08,0005.19
2023-08-08 15:40:00,SystemResetWarning,0831.7,5.00,000.00,029.2,026.1,000.0,037.8,030.6,29.4,0000.2,0013.06,0006.16,0005.20
2023-08-08 15:41:00,SystemResetWarning,0831.7,5.00,000.00,029.2,026.5,000.0,037.8,030.7,30.2,0000.0,0013.40,0006.24,0005.19
2023-08-08 15:42:00,SystemResetWarning,0831.7,5.00,000.00,029.3,026.8,000.0,037.9,030.8,29.7,0000.5,0013.20,0006.31,0005.18
2023-08-08 15:43:00,SystemResetWarning,0831.7,5.00,000.00,029.3,027.1,000.0,037.9,030.9,30.1,0000.4,0013.47,0006.29,0005.16
2023-08-08 15:44:00,SystemResetWarning,0831.6,5.00,000.00,029.3,027.4,000.0,037.9,030.9,30.9,0000.5,0014.01,0006.33,0005.16
2023-08-08 15:45:00,SystemResetWarning,0831.7,5.00,000.00,029.3,027.6,000.0,037.9,031.0,31.2,0000.4,0013.89,0006.29,0005.17
2023-08-08 15:46:00,SystemResetWarning,0831.7,5.00,000.00,029.3,027.8,000.0,037.9,031.0,30.9,-000.0,0012.70,0006.25,0005.19
2023-08-08 15:47:00,SystemResetWarning,0831.7,4.99,000.00,029.4,028.0,000.0,037.9,031.1,29.6,-000.3,0011.78,0006.24,0005.21
2023-08-08 15:48:00,SystemResetWarning,0831.7,4.99,000.00,029.4,028.1,000.0,037.9,031.1,29.5,-000.1,0011.97,0006.22,0005.24
2023-08-08 15:49:00,SystemResetWarning,0831.7,5.00,000.00,029.4,028.2,000.0,037.9,031.2,28.8,-000.5,0012.34,0006.25,0005.27
2023-08-08 15:50:00,SystemResetWarning,0831.7,5.00,000.00,029.5,028.3,000.0,038.0,031.2,29.2,0000.0,0012.57,0006.30,0005.32
2023-08-08 15:51:00,SystemResetWarning,0831.7,5.00,000.00,029.5,027.9,000.0,037.9,031.2,29.3,0000.0,0012.64,0006.27,0005.36
2023-08-08 15:52:00,SystemResetWarning,0831.7,5.00,000.00,029.5,026.2,000.0,037.8,031.0,29.7,-000.1,0012.94,0006.31,0005.41
2023-08-08 15:53:00,SystemResetWarning,0831.7,5.00,000.00,029.4,025.2,000.0,037.7,030.7,29.8,-000.0,0012.56,0006.28,0005.45
2023-08-08 15:54:00,SystemResetWarning,0831.7,5.01,000.00,029.3,025.3,000.0,037.7,030.6,30.2,0000.0,0012.26,0006.35,0005.50
2023-08-08 15:55:00,SystemResetWarning,0831.7,5.00,000.00,029.2,025.6,000.0,037.7,030.5,30.6,0000.0,0012.00,0006.35,0005.54
2023-08-08 15:56:00,SystemResetWarning,0831.6,5.00,000.00,029.2,026.1,000.0,037.8,030.6,31.1,0000.0,0011.95,0006.41,0005.61
2023-08-08 15:57:00,SystemResetWarning,0831.6,5.01,000.00,029.2,026.5,000.0,037.8,030.7,31.3,0000.0,0012.14,0006.52,0005.67
2023-08-08 15:58:00,SystemResetWarning,0831.7,4.99,000.00,029.2,026.8,000.0,037.8,030.8,30.6,0000.0,0012.37,0006.60,0005.73
2023-08-08 15:59:00,SystemResetWarning,0831.7,4.99,000.00,029.2,027.1,000.0,037.8,030.9,30.2,0000.1,0012.68,0006.67,0005.77
